Find Starlink 31767

NORAD ID: 59605 Int'l Des: 2024-080 Owner: SPXS Country: US Constellation: starlink operational
LEOCIRCULAR

实时位置

正在加载3D地球...

关于 Starlink 31767

正在加载描述...

即将过境

Passes for default location (London). Set your location on the main map for personalized predictions.

高度历史

Loading altitude history...

两行轨道根数

1 59605U 24080E 26126.90394551 .00001381 00000-0 59703-4 0 9993
2 59605 43.0043 69.3281 0001317 261.6864 98.3838 15.27570299113433
Epoch: May 6, 2026 • Age: 16 hours

当前状态

高度 483.4 km
速度 7.63 km/s
星下点 24.88°N, 140.33°E
发射日期 Apr 28, 2024
运行时间 2 years
类型 internet

技术详情

分类 Payload
质量 730.00 kg
干质量 700.00 kg
总质量 730.00 kg
长度 0.30 m
直径 4.10 m
跨度 29.00 m
形状 Box + pan
制造商 SPXS
平台类型 Starlink V2M
阶段状态 In Orbit
所有者/国家 SPXS/US

Most Searched